Location: Unspecified
(0.0000°N, 0.0000°E)
Time: 09:09:40
(UTC+00:00)

AO-73 - Visible Passes

Search period start: 10 July 2020 00:00
Search period end: 20 July 2020 00:00
Orbit: 582 x 663 km, 97.6° (Epoch: 09 July)

Date Brightness Start Highest point End Pass type
(mag) Time Alt. Az. Time Alt. Az. Time Alt. Az.
10 Jul ? 05:06:41 10° NNE 05:10:36 43° ESE 05:14:31 10° S visible
11 Jul ? 05:24:29 10° NNE 05:28:36 85° ESE 05:32:43 10° S visible
13 Jul ? 04:27:47 10° E 04:28:39 11° ESE 04:29:32 10° ESE visible
14 Jul ? 04:43:38 10° NE 04:46:39 20° ESE 04:49:39 10° SSE visible
14 Jul ? 18:29:40 10° SW 18:31:36 13° WSW 18:33:32 10° WNW visible
15 Jul ? 05:00:51 10° NE 05:04:37 36° ESE 05:08:25 10° SSE visible
16 Jul ? 05:18:32 10° NNE 05:22:37 70° ESE 05:26:44 10° S visible
17 Jul ? 05:36:35 10° N 05:40:37 59° W 05:44:42 10° SSW visible
19 Jul ? 04:38:01 10° ENE 04:40:40 17° ESE 04:43:20 10° SE visible
